Dewpoint
69 64 56 54 52 45 43 44 36 43 39 38 39 39 38 41 47 43 46 50 47 54 55 54 51 56 54 53 54 55 55 52 55 48 47 59 66 65 66 66 67 66 67 67 68 67 66 66 65 64 64 62 61 62 62 61 60 59 59 58 58 57 57 57 57 57 57 57 58 57 60 61 59 61 61 62 61 60 59 59 59 60 61 61 61 63 64 64 63 62 61 59 60 58 58 58 59
54 52 51 50 47 45 43 41 40 38 41 37 42 37 44 42 43 47 48 50 52 53 52 53 53 55 57 55 55 56 56 58 58 58 61 64 65 66 66 67 66 66 67 67 67 68 65 64 64 63 62 62 62 62 61 60 59 58 58 58 57 57 56 56 56 55 57 57 58 57 59 60 62 63 64 61 61 61 61 60 59 60 62 64 63 65 64 64 62 62 61 60 59 60 57 56 56
47 47 46 48 48 44 39 40 37 37 36 34 35 41 43 45 44 48 51 51 52 53 52 54 55 54 54 53 52 53 52 59 59 59 61 64 62 64 66 66 66 67 67 67 68 66 63 61 62 63 62 62 62 61 60 59 58 58 58 58 57 57 57 56 57 58 58 58 58 58 59 61 62 65 64 65 61 61 61 60 63 64 63 63 64 64 64 63 62 61 61 61 60 58 57 56 56
52 48 45 44 41 40 37 37 36 39 39 37 35 39 44 45 48 51 52 52 50 52 53 55 54 56 55 53 53 56 56 57 60 59 60 62 63 66 66 66 66 67 67 68 66 61 61 63 64 63 62 62 62 61 59 59 59 60 59 58 58 58 57 63 60 59 59 58 58 59 60 61 64 64 64 65 65 63 63 64 63 63 63 63 63 62 62 63 61 60 60 60 59 57 56 56 56
51 48 47 38 37 38 39 39 38 39 38 39 43 42 45 47 48 51 51 52 54 54 56 55 54 56 56 56 55 52 54 59 60 62 61 64 66 66 67 66 65 67 67 66 62 61 61 64 63 62 62 61 61 60 59 59 58 58 61 60 58 58 58 61 61 61 59 60 59 59 59 59 64 64 64 64 64 64 64 63 62 62 62 61 62 62 61 62 61 60 59 58 57 57 57 59 59
50 43 43 42 34 35 33 33 38 40 46 48 42 44 46 48 52 51 52 54 55 53 57 55 52 54 55 56 59 56 59 56 60 61 62 63 65 67 66 65 66 66 66 62 61 60 62 63 63 62 61 60 59 58 58 58 57 59 61 60 59 58 58 59 59 61 61 60 60 59 61 59 62 63 63 62 62 62 62 62 62 61 61 61 61 61 61 60 59 59 58 57 57 57 57 59 56
43 42 42 39 37 34 34 39 39 41 43 46 46 45 48 49 52 51 53 53 54 54 56 55 56 54 53 57 59 60 61 61 60 62 63 65 66 66 66 66 65 65 64 63 62 61 61 62 62 61 60 60 59 58 57 57 58 61 61 59 58 57 57 58 57 60 61 61 60 60 60 59 59 62 61 61 62 62 61 62 61 60 59 59 60 60 59 58 58 58 57 57 57 56 57 59 58
44 40 35 34 37 40 42 39 38 41 42 48 46 47 50 52 52 52 53 50 51 51 54 54 53 54 55 58 54 60 62 63 62 64 65 65 66 66 66 64 66 65 63 63 61 61 62 61 60 59 58 58 57 57 57 57 58 59 61 59 59 57 57 58 57 59 60 60 60 59 59 58 61 60 60 60 60 61 60 60 60 59 58 58 59 58 57 57 58 57 56 56 57 57 58 58 57
42 38 35 30 30 39 41 38 39 46 48 51 52 53 53 53 54 53 51 53 53 55 55 55 53 51 54 55 57 59 62 63 64 64 64 64 65 66 66 65 64 65 65 62 61 63 61 60 59 58 58 58 58 59 58 57 59 60 59 58 59 57 58 58 57 59 59 59 58 59 58 59 59 59 59 58 59 59 58 59 59 58 58 58 58 58 57 57 57 57 57 57 57 57 58 58 57
38 35 33 32 32 41 38 42 45 52 49 50 52 53 54 54 54 55 52 51 53 54 55 56 55 54 55 54 56 58 60 63 64 64 65 65 66 65 65 66 65 64 64 62 61 60 61 60 58 58 57 57 58 58 59 59 59 60 57 58 58 57 58 58 58 59 59 58 58 58 58 58 58 58 57 57 59 58 57 58 58 57 58 57 57 57 58 58 58 57 57 58 58 58 58 58 58
37 35 34 32 43 39 38 42 41 43 46 50 53 55 56 57 54 55 51 53 54 53 53 57 54 54 53 54 58 62 64 64 62 62 64 65 65 65 65 66 66 66 63 65 63 60 59 59 60 57 57 58 56 58 59 59 59 57 57 58 58 57 58 59 58 58 58 59 58 57 57 56 57 57 57 56 59 57 57 57 58 57 57 58 58 58 58 58 58 58 58 58 58 58 59 58 58
33 33 33 34 37 42 42 44 42 50 52 49 52 54 55 56 54 51 53 52 52 52 51 54 52 56 54 53 55 62 63 63 61 62 64 64 64 65 65 64 66 67 64 60 52 60 59 59 57 60 56 56 59 60 60 60 59 57 57 57 57 58 57 57 58 57 58 58 57 56 56 55 55 55 56 57 58 57 58 57 57 57 58 57 58 58 57 57 57 57 58 58 58 58 58 59 58
32 33 34 33 44 46 44 44 43 47 52 53 53 54 56 56 55 53 55 54 53 52 54 54 57 57 53 54 58 61 61 61 60 60 62 62 62 64 65 63 63 63 62 59 53 51 54 57 58 59 58 58 59 60 60 60 58 57 57 57 57 57 57 57 57 58 57 56 55 55 54 54 55 54 55 56 56 57 56 58 56 58 58 57 57 56 56 56 56 56 56 57 57 58 58 58 58
32 32 32 42 46 45 45 49 52 44 46 50 53 57 57 56 54 53 52 51 52 52 53 56 57 55 54 56 58 58 60 59 58 61 57 60 61 61 62 61 62 60 60 60 55 53 54 51 51 57 57 61 61 60 60 58 56 57 55 56 55 56 57 57 58 57 55 55 53 54 54 54 54 53 53 55 55 56 54 57 55 57 57 56 55 55 55 55 55 55 56 56 57 57 57 58 57
31 31 36 41 45 43 45 48 51 47 45 48 52 53 53 53 53 54 53 47 48 50 55 58 52 53 51 54 54 57 59 60 60 62 61 62 61 61 62 61 60 55 58 56 56 56 50 54 54 53 59 59 60 61 62 58 57 57 56 56 55 55 56 56 56 56 55 54 54 54 56 56 55 53 53 55 55 55 56 53 54 56 56 55 55 54 55 55 55 55 56 57 57 58 58 57 58
33 42 43 44 42 42 49 47 49 45 48 48 53 53 53 51 52 52 50 50 49 51 55 55 55 53 54 55 57 58 60 60 60 61 59 60 61 61 59 59 57 56 57 55 55 57 53 53 55 54 58 59 62 62 61 59 57 56 55 56 56 55 55 54 57 57 57 56 57 56 57 57 57 57 53 52 56 55 56 53 55 55 56 56 55 55 55 56 56 56 56 58 59 58 59 59 59
46 40 41 42 47 51 47 45 45 45 45 51 51 53 50 49 52 49 50 49 50 52 51 53 54 55 55 56 58 59 61 61 60 59 59 59 57 57 53 52 53 54 57 57 59 55 58 50 53 57 55 56 60 62 64 58 54 58 58 58 58 58 55 57 59 56 57 57 57 58 58 54 58 59 61 54 54 58 54 56 56 57 56 56 56 56 56 57 57 57 58 59 59 60 61 61 61
43 46 45 51 54 50 46 42 44 50 46 46 49 51 50 49 50 48 52 50 48 51 51 53 55 57 58 58 59 60 60 60 59 55 54 52 54 51 49 50 50 54 54 53 54 59 55 58 56 58 59 58 60 59 58 58 59 58 60 60 60 58 58 59 58 59 57 60 60 61 62 60 59 61 58 53 60 57 57 57 57 57 57 57 56 56 57 57 58 59 58 59 60 61 62 59 57
45 46 43 40 45 44 48 44 45 48 48 46 50 51 51 48 50 49 50 48 46 49 51 53 53 55 57 58 58 59 59 58 56 55 51 52 49 50 49 50 53 49 51 53 53 56 55 58 53 57 59 61 60 60 55 59 55 60 56 60 61 59 58 59 58 60 56 53 55 54 64 60 59 62 64 56 56 55 55 57 59 59 59 58 59 58 59 59 60 61 60 60 60 61 58 55 51
45 44 41 42 42 44 53 48 46 46 46 47 48 50 49 47 50 49 49 46 45 46 48 48 50 52 53 55 57 57 56 55 56 52 52 50 47 48 45 53 51 52 49 53 53 53 57 57 57 61 58 55 59 57 60 63 61 60 63 60 65 63 62 58 56 59 57 57 52 57 60 64 59 66 53 54 55 57 56 59 59 59 59 59 59 60 60 61 61 62 62 61 62 58 49 48 47
46 44 44 43 52 45 50 47 43 44 47 46 48 48 46 47 45 48 45 40 44 46 47 46 48 48 49 49 51 51 51 55 53 54 53 50 50 52 53 53 53 52 53 52 52 54 49 51 55 61 60 62 59 59 60 59 61 60 61 62 62 60 63 60 59 58 58 58 57 57 51 57 58 60 60 60 59 55 55 58 58 58 57 56 59 56 53 48 55 48 49 57 58 49 50 55 54
44 42 47 46 48 51 55 47 50 44 44 46 45 46 45 44 43 45 47 45 44 46 48 49 50 47 45 44 47 47 47 51 55 53 53 54 52 51 53 54 56 54 52 45 51 49 50 52 55 56 60 58 57 61 59 58 60 64 62 62 60 62 62 62 60 66 58 58 57 52 55 57 61 58 59 60 60 58 54 56 50 56 53 56 53 52 54 57 51 50 52 53 52 52 51 51 50
45 43 43 44 48 49 42 41 42 43 43 43 44 42 41 42 41 43 43 46 47 48 51 50 48 45 46 50 50 49 48 48 50 50 53 53 53 52 50 51 50 49 46 52 55 49 52 51 59 58 56 56 57 54 58 59 61 65 60 63 59 54 58 61 57 55 60 59 57 60 55 55 55 60 55 56 60 58 56 59 54 56 53 55 53 53 52 56 53 51 53 52 50 47 46 48 47
47 43 44 45 47 46 41 40 42 41 43 41 36 36 38 33 32 28 42 48 48 47 50 48 45 46 47 50 51 52 52 52 51 51 52 52 53 52 53 55 53 56 53 51 50 52 55 52 56 58 60 59 58 58 58 60 60 60 59 61 60 60 60 55 55 64 60 65 57 62 59 57 55 52 53 53 53 57 57 52 56 54 52 52 54 58 48 51 54 52 52 48 47 48 47 46 47
46 45 47 47 39 38 39 39 40 37 33 30 33 35 26 31 25 37 40 45 47 48 49 46 45 45 48 48 51 52 51 50 51 52 53 49 55 53 53 52 54 54 52 48 53 47 52 60 58 56 59 56 60 60 56 58 60 62 60 59 60 59 59 61 61 62 64 59 56 55 57 59 59 52 54 51 59 53 56 51 57 56 51 52 52 58 50 54 51 51 52 48 48 48 48 49 47
41 45 39 39 38 37 38 36 33 30 29 32 31 25 26 23 26 33 40 44 47 48 47 45 45 46 46 49 49 51 51 51 48 48 49 50 54 52 53 52 51 50 51 52 48 58 58 58 57 57 57 58 60 57 59 63 60 62 54 57 62 62 59 62 60 63 62 56 57 56 55 60 56 57 56 52 49 59 57 58 54 56 52 55 52 54 51 55 48 51 48 47 45 46 45 46 48
41 38 39 37 36 35 35 33 32 32 32 32 25 29 22 24 30 35 42 47 48 48 46 44 44 45 48 48 50 52 50 50 52 52 51 50 49 50 50 52 46 43 54 54 51 54 58 56 59 59 56 59 59 57 59 60 61 58 56 57 58 53 60 58 61 57 57 59 61 60 54 57 55 55 55 53 56 54 52 59 56 57 54 52 52 51 51 53 50 51 47 47 46 46 46 45 46
39 37 37 34 35 35 34 32 33 32 31 37 29 31 27 33 35 37 40 45 47 46 45 43 42 42 47 48 48 51 53 51 49 54 52 50 51 48 45 49 51 50 46 49 52 56 54 56 55 53 57 59 61 58 52 58 59 54 54 60 56 53 59 57 57 57 58 59 56 57 60 59 55 61 58 52 52 53 55 53 57 56 53 52 51 51 50 53 49 46 48 47 50 49 48 47 47
39 35 34 35 34 33 32 32 32 34 27 37 38 32 35 33 38 37 39 42 44 43 44 42 42 44 46 49 49 48 50 49 51 52 53 53 52 52 51 53 50 52 49 49 55 57 55 57 56 55 55 58 56 58 59 61 61 53 55 56 55 48 56 58 52 58 54 59 58 57 60 55 64 55 56 59 54 50 55 58 53 55 52 53 52 49 48 51 51 50 49 48 48 47 48 47 44
34 41 40 33 33 32 34 33 31 34 31 37 37 31 32 34 36 38 34 40 39 39 39 42 45 45 46 47 48 49 51 52 52 53 50 54 52 52 50 51 55 51 50 53 54 53 53 55 58 55 56 55 58 57 63 59 62 60 57 61 59 59 62 57 60 62 57 61 58 57 56 53 54 61 56 55 58 53 55 54 55 53 53 54 54 53 50 51 50 48 49 48 49 47 45 45 46
41 39 40 40 39 33 33 32 28 33 33 39 41 37 32 35 35 35 34 38 38 39 40 46 49 49 48 48 48 48 52 51 52 54 55 54 56 53 54 52 52 50 56 54 55 53 55 57 57 56 57 57 52 57 51 57 61 59 58 58 57 59 58 56 56 59 57 60 56 56 57 58 58 55 57 58 56 56 54 53 56 51 53 54 51 53 51 52 55 51 50 48 47 48 46 44 43
44 39 35 38 38 31 31 32 30 32 31 38 39 38 32 32 33 40 37 39 41 41 42 45 48 48 48 47 47 47 49 51 53 53 56 55 51 53 55 54 52 47 55 56 56 58 55 58 57 57 55 60 60 55 60 65 62 60 58 54 62 58 58 53 66 60 56 57 53 56 55 57 59 60 58 59 59 53 54 52 54 55 53 54 55 55 54 53 51 52 52 50 48 45 45 43 45
44 39 36 40 36 31 30 32 33 32 31 36 39 37 32 31 36 36 37 38 40 41 43 45 47 48 48 47 48 46 48 50 50 50 52 55 55 54 56 56 52 52 55 57 53 56 56 58 55 59 55 58 59 54 60 56 61 58 59 61 57 59 54 59 57 59 60 58 61 58 58 59 59 60 59 59 59 55 52 53 52 52 54 54 57 56 55 54 53 48 55 53 50 46 43 42 44
38 38 37 37 36 31 31 32 31 35 33 35 36 36 33 34 34 35 36 38 39 42 42 43 45 46 46 46 46 46 49 48 48 50 52 53 51 55 59 57 55 53 54 57 58 54 58 58 56 60 60 59 62 60 60 61 58 60 55 61 57 56 56 59 59 54 59 62 58 60 58 59 61 60 60 58 58 54 52 54 53 54 54 56 57 55 55 54 53 56 54 53 49 47 46 45 43
37 37 36 37 35 31 30 29 31 33 32 35 33 33 34 33 34 35 36 36 37 40 42 43 44 44 45 45 46 47 46 47 49 53 53 55 54 54 55 56 56 54 55 56 58 59 58 59 58 59 61 61 61 62 61 61 61 59 60 59 58 58 56 57 59 59 59 58 55 59 61 57 61 60 59 60 59 59 55 55 56 57 57 58 58 55 54 53 54 54 54 47 49 46 47 46 45
35 36 30 37 33 28 38 29 31 31 31 34 34 33 33 32 33 35 36 35 37 38 41 41 41 43 44 46 45 45 45 47 49 49 52 50 53 54 55 54 55 55 57 58 58 58 59 60 60 60 61 62 61 61 60 56 59 56 54 57 55 61 55 56 55 58 61 61 58 58 58 63 60 60 60 59 60 58 59 59 58 57 58 58 58 56 54 52 51 50 56 46 46 46 46 45 45
39 37 41 29 31 28 29 29 30 31 30 35 34 33 33 33 32 34 34 35 38 39 41 44 44 43 42 42 44 45 47 47 49 49 51 51 55 56 56 55 54 55 56 57 56 56 59 58 60 59 60 62 61 58 58 57 55 56 58 58 56 56 51 60 58 61 57 56 58 55 54 57 59 60 58 58 59 58 59 61 59 58 56 58 58 56 56 52 53 53 55 52 48 46 47 45 47
41 42 37 26 26 23 25 28 27 32 34 35 35 35 31 34 30 30 33 34 35 37 38 41 42 42 41 42 43 44 46 53 45 48 50 49 53 55 57 57 58 56 56 56 57 57 59 59 58 60 61 61 60 61 63 64 61 62 61 61 54 59 59 61 61 57 62 57 59 62 60 57 60 57 59 56 59 59 59 59 59 58 57 58 57 55 54 56 55 51 54 51 48 47 49 47 46
40 41 34 34 36 23 27 26 27 30 32 40 33 33 37 32 30 30 32 32 35 37 38 38 41 42 41 42 42 49 46 50 48 47 47 50 52 53 56 59 58 58 58 56 57 58 59 59 60 60 61 60 60 59 60 61 60 62 63 60 59 57 57 59 56 58 60 58 61 60 61 60 58 58 53 58 54 58 58 61 59 59 58 59 58 56 56 55 56 51 54 50 51 49 48 46 48
47 36 36 29 25 28 27 22 26 28 33 32 27 30 31 34 33 31 32 32 35 36 38 38 39 44 41 44 42 43 44 48 47 48 49 48 53 56 56 58 60 60 59 57 57 57 56 59 60 60 61 60 61 60 59 60 60 61 61 63 60 60 59 61 59 60 60 57 56 57 58 56 56 53 50 50 50 61 58 59 58 59 56 60 59 56 57 50 53 53 53 51 51 50 46 47 47
37 38 40 33 26 24 31 21 21 28 30 29 30 32 34 33 32 32 33 34 35 37 38 38 41 40 41 45 44 45 46 50 48 49 55 54 55 57 58 59 60 60 59 58 58 56 55 58 60 60 61 60 60 62 60 59 61 60 64 61 59 58 60 59 57 58 55 56 58 59 62 58 55 57 54 52 50 56 58 60 58 56 54 57 55 55 53 53 49 52 53 52 51 52 48 50 48
34 38 37 39 34 34 25 27 29 30 33 30 32 31 32 34 31 33 35 34 38 38 39 44 41 42 41 45 46 49 47 50 51 52 52 51 55 58 59 59 58 58 59 60 60 57 58 58 59 59 61 61 60 59 58 60 61 60 60 59 58 60 58 58 56 59 60 61 56 60 58 56 56 58 55 52 52 56 60 60 59 55 54 56 58 57 54 56 54 50 50 53 53 53 52 49 47
36 33 34 35 35 34 27 27 30 29 28 32 31 34 32 33 33 33 34 33 34 44 42 39 39 40 41 45 44 46 45 48 52 52 50 51 57 57 59 59 57 58 58 59 59 58 57 58 58 56 60 61 58 59 59 60 60 60 60 58 58 59 60 61 62 63 64 60 60 61 59 60 55 55 55 59 54 61 59 59 59 57 54 56 60 57 57 57 52 52 51 53 52 54 53 51 49
35 34 34 35 37 34 35 30 31 32 34 33 36 35 31 31 32 34 35 37 35 36 37 38 38 40 43 46 44 46 45 47 48 53 53 55 57 58 59 59 58 58 59 58 60 59 56 58 57 57 60 59 57 59 59 59 60 61 60 59 60 59 58 58 60 62 62 64 59 56 57 59 55 58 59 53 55 52 57 56 55 58 57 55 58 56 57 58 55 56 54 57 55 57 54 52 51
34 33 33 36 38 38 36 45 40 40 36 33 34 35 33 32 33 33 34 35 35 36 35 37 43 45 42 47 44 43 44 45 46 48 52 54 57 59 59 59 57 58 57 59 58 59 57 56 57 57 59 59 59 60 58 56 60 61 61 60 59 59 57 58 61 60 64 60 59 59 60 55 56 59 59 57 55 57 57 56 58 53 58 57 57 54 55 54 55 56 55 55 55 54 58 55 53
34 30 30 34 44 49 38 35 39 41 36 31 33 33 33 30 33 33 33 36 35 34 39 35 38 36 38 40 44 42 43 44 44 47 51 56 58 59 61 60 58 58 58 58 59 61 57 57 57 56 58 56 59 58 59 58 57 60 60 60 59 59 60 60 58 61 60 60 59 59 59 59 58 62 59 59 57 53 53 59 53 51 56 57 58 55 55 55 55 55 55 55 54 54 57 55 52
32 30 30 33 48 52 42 42 47 39 33 34 34 32 34 31 32 38 32 32 36 34 36 36 36 39 38 43 40 40 43 42 45 45 50 53 55 57 60 60 60 60 60 58 59 60 58 58 57 56 58 57 58 57 55 58 59 57 56 57 57 54 55 58 60 59 58 60 59 58 60 60 61 60 61 59 59 53 59 58 56 53 54 58 57 53 55 53 53 55 55 54 55 52 54 54 52
32 36 46 49 39 47 46 38 38 33 30 29 32 30 39 35 33 35 41 35 35 34 34 35 36 35 36 41 41 40 42 41 43 44 47 50 57 58 59 60 60 60 60 59 58 59 57 57 58 58 58 59 59 57 57 57 58 58 58 59 57 56 53 51 57 54 52 51 56 58 62 64 62 60 60 61 60 55 60 59 59 58 56 57 57 55 55 54 53 55 55 55 57 54 55 54 53
32 38 41 40 30 28 28 33 29 31 29 31 26 34 38 36 33 35 24 27 30 31 31 32 32 32 39 36 40 40 39 41 42 44 51 56 57 59 60 59 60 60 60 59 59 58 57 59 59 59 58 58 60 58 58 58 58 58 57 55 57 58 55 51 53 55 55 58 60 60 61 60 60 59 60 60 59 58 60 59 59 58 58 58 57 56 54 53 54 56 55 54 55 54 53 53 52
29 35 44 33 25 26 27 25 29 31 33 29 39 34 32 24 22 25 26 27 31 34 34 32 36 40 38 34 38 38 40 41 44 51 53 55 56 56 60 60 59 60 59 58 58 59 58 59 61 59 59 58 59 59 58 58 57 58 59 58 56 56 58 58 58 56 57 64 61 60 60 60 60 60 59 57 57 57 59 59 59 59 58 57 57 55 54 54 54 55 56 53 54 55 55 54 52
39 35 32 33 30 34 27 27 24 35 30 25 27 33 30 25 23 27 28 28 32 32 31 36 37 36 43 36 36 37 42 47 48 49 49 50 54 57 60 61 60 60 60 58 58 57 57 60 61 61 60 58 59 59 59 58 58 58 57 58 59 60 61 60 60 59 61 58 62 58 59 61 60 59 59 62 60 56 57 59 59 58 57 58 57 55 52 54 55 57 54 55 54 55 55 54 53
33 34 33 30 32 37 34 33 32 30 26 26 24 27 29 31 27 25 27 27 29 32 34 38 36 32 37 38 42 40 42 43 43 46 50 51 55 56 58 61 62 60 61 61 58 59 59 60 61 61 61 60 60 59 58 59 58 59 59 59 59 58 59 60 60 61 62 60 57 56 58 60 59 60 60 60 58 59 60 59 59 58 58 57 57 55 54 53 55 55 56 56 53 55 53 52 53
47 38 41 32 34 40 32 36 34 34 32 24 20 30 21 21 22 20 25 27 28 30 29 32 33 34 43 41 38 38 39 39 43 47 46 52 51 56 56 59 60 61 61 61 62 61 61 61 61 62 62 60 60 60 60 58 59 59 59 58 58 57 57 57 59 59 57 59 58 59 60 57 60 61 59 59 58 59 60 59 59 57 56 57 57 55 54 54 55 56 54 55 53 56 54 53 53
29 29 38 28 28 29 29 31 24 24 28 21 21 30 22 20 24 23 24 27 26 28 27 30 35 35 38 41 42 38 39 39 41 44 48 49 52 54 54 57 57 59 60 60 62 62 63 63 62 61 62 61 60 60 59 59 58 57 59 59 58 58 57 55 57 53 54 59 60 59 59 58 57 57 57 56 58 59 59 56 57 56 56 57 57 56 55 54 54 56 56 56 54 55 54 54 54
27 31 28 24 31 23 30 28 23 19 20 22 23 26 33 37 31 25 27 28 30 29 30 32 33 31 36 39 37 40 42 46 43 42 47 52 53 54 56 57 51 56 62 59 58 58 60 63 63 63 62 62 61 58 58 58 58 56 54 58 59 58 57 57 57 56 58 53 52 56 56 57 57 58 59 60 60 58 57 57 57 56 57 55 57 56 55 54 54 55 55 56 56 54 52 51 52
28 29 25 25 29 34 30 31 39 29 18 24 15 34 31 37 36 28 26 30 29 30 31 32 33 32 35 35 34 37 44 51 40 44 44 49 52 52 52 55 49 54 58 60 59 57 58 61 63 63 63 62 62 60 61 59 56 57 54 56 57 55 56 55 56 58 58 54 51 50 52 58 59 59 59 58 57 56 56 56 55 55 54 56 56 55 53 52 54 55 56 54 55 52 49 50 51
24 21 23 26 29 29 27 33 25 26 22 17 20 22 29 33 29 28 27 30 30 31 32 34 33 35 36 39 44 44 42 48 45 43 45 46 53 53 51 56 48 52 53 52 55 58 57 60 59 59 62 60 61 61 61 60 61 59 57 55 58 58 58 57 57 55 56 54 56 56 57 61 61 61 59 57 55 54 53 54 52 53 52 54 53 54 54 53 53 50 53 55 53 50 47 51 51
22 21 21 21 26 29 25 26 26 23 30 21 19 25 32 22 26 27 30 31 30 29 31 34 33 33 43 44 51 53 47 51 56 54 48 48 54 51 46 49 48 50 49 47 51 55 54 57 56 58 59 59 59 59 61 61 62 61 60 59 58 58 57 57 57 57 57 55 56 58 59 58 58 57 59 55 54 54 54 54 52 50 51 50 52 50 53 52 49 50 52 54 54 52 51 49 51